Location: 22
(39.7117°N, 89.5929°W)
Time: 04:39:26
(UTC-05:00)

Vanguard 1 Rocket - Pass Details

Date: 14 February 2023
Orbit: 652 x 4223 km, 34.3° (Epoch: 26 March)

Event Time Altitude Azimuth Distance (km) Brightness Sun altitude
Rises 08:07:16 0° 210° (SSW) 3,030 10.1 12.5°
Reaches altitude 10° 08:09:49 10° 193° (SSW) 2,266 9.7 12.9°
Maximum altitude 08:13:40 21° 143° (SE) 1,930 10.6 13.6°
Drops below altitude 10° 08:18:55 10° 97° (E) 3,216 11.7 14.4°
Sets 08:23:28 0° 83° (E) 4,783 12.0 15.2°
